PINOT

Last updated on Fri Jun 26 2020 00:02:11 GMT+0000 (Coordinated Universal Time)

1 44364U 98067QJ 20177.56812326 .00002918 00000-0 51192-4 0 9993 2 44364 51.6420 299.1647 0006870 0.0407 0.0584 15.54206923 56602
UTC large
Height (km)
Speed (km/s)
/
Latitude / Longitude
Inclination (degrees)
Orbital Period (minutes)
Azimuth
Elevation
Range (km)
Doppler Factor

Next 0 passes for location: London (51.5072 / 0.1276)

Sorry there are no passes over London.